N1NSI Weather Reports


Display with metric or nautical units.
time (UTC)temp
F
wind
direction
speed
MPH
gust
MPH
rain 1hr
in
rain 24hr
in
rain mn
in
humidity
%
barometer
mb
20210303113838 16 0 0.0 0.0 0.00 0.00 0.00 78 1008.8
20210303113543 16 0 0.0 0.0 0.00 0.00 0.00 78 1008.8
20210303112807 16 0 0.0 0.0 0.00 0.00 0.00 78 1008.8
20210303110534 16 0 0.0 0.0 0.00 0.00 0.00 77 1008.8
20210303110019 16 0 0.0 0.0 0.00 0.00 0.00 77 1009.0
20210303105553 16 0 0.0 0.0 0.00 0.00 0.00 77 1009.0
20210303105034 16 0 0.0 0.0 0.00 0.00 0.00 77 1009.0
20210303104534 16 328 0.0 1.0 0.00 0.00 0.00 76 1009.1
20210303103743 16 0 0.0 0.0 0.00 0.00 0.00 75 1009.1
20210303103550 16 0 0.0 0.0 0.00 0.00 0.00 75 1009.1
20210303103120 15 0 0.0 0.0 0.00 0.00 0.00 74 1009.1
20210303102020 15 0 0.0 0.0 0.00 0.00 0.00 73 1009.1
20210303101534 15 0 0.0 0.0 0.00 0.00 0.00 73 1009.1
20210303101049 16 0 0.0 0.0 0.00 0.00 0.00 73 1009.3
20210303100523 16 0 0.0 0.0 0.00 0.00 0.00 72 1009.3
20210303100043 16 0 0.0 0.0 0.00 0.00 0.00 73 1009.3
20210303095523 16 0 0.0 0.0 0.00 0.00 0.00 72 1009.3
20210303095028 16 0 0.0 0.0 0.00 0.00 0.00 71 1009.3
20210303094521 16 0 0.0 0.0 0.00 0.00 0.00 71 1009.5
20210303094024 16 0 0.0 0.0 0.00 0.00 0.00 70 1009.5
20210303093730 16 0 0.0 0.0 0.00 0.00 0.00 71 1009.5
20210303093413 16 0 0.0 0.0 0.00 0.00 0.00 70 1009.6
20210303092747 17 327 0.0 1.0 0.00 0.00 0.00 70 1009.6
20210303092031 17 327 0.0 1.0 0.00 0.00 0.00 70 1009.6
20210303091533 17 0 0.0 0.0 0.00 0.00 0.00 70 1009.5
20210303091036 17 0 0.0 0.0 0.00 0.00 0.00 69 1009.5
20210303090525 17 0 0.0 0.0 0.00 0.00 0.00 69 1009.5
20210303090023 17 0 0.0 0.0 0.00 0.00 0.00 69 1009.5
20210303085523 17 0 0.0 0.0 0.00 0.00 0.00 69 1009.5
20210303085035 18 327 0.0 1.0 0.00 0.00 0.00 69 1009.5
20210303084521 18 327 0.0 1.0 0.00 0.00 0.00 68 1009.6
20210303084031 18 0 0.0 0.0 0.00 0.00 0.00 68 1009.6
20210303083558 18 327 0.0 1.0 0.00 0.00 0.00 68 1009.6
20210303082733 18 0 0.0 0.0 0.00 0.00 0.00 68 1009.6
20210303082115 18 0 0.0 0.0 0.00 0.00 0.00 67 1009.6
20210303081528 18 0 0.0 0.0 0.00 0.00 0.00 66 1009.9
20210303081032 19 328 0.0 1.0 0.00 0.00 0.00 66 1009.9
20210303080537 19 328 0.0 1.0 0.00 0.00 0.00 65 1009.9
20210303080038 19 328 0.0 1.0 0.00 0.00 0.00 65 1009.9
20210303075519 19 0 0.0 0.0 0.00 0.00 0.00 65 1009.9
20210303075021 19 331 0.0 1.0 0.00 0.00 0.00 66 1009.9
20210303074528 19 331 0.0 1.0 0.00 0.00 0.00 67 1010.3
20210303074030 19 331 0.0 1.0 0.00 0.00 0.00 66 1010.3
20210303073555 19 331 0.0 1.0 0.00 0.00 0.00 65 1010.6
20210303073044 19 0 0.0 0.0 0.00 0.00 0.00 63 1010.6
20210303072025 19 0 0.0 0.0 0.00 0.00 0.00 63 1010.6
20210303071521 19 0 0.0 0.0 0.00 0.00 0.00 63 1011.1
20210303071027 19 0 0.0 0.0 0.00 0.00 0.00 63 1011.1
20210303070521 19 331 0.0 1.0 0.00 0.00 0.00 63 1011.1
20210303070029 19 331 0.0 1.0 0.00 0.00 0.00 63 1011.2
20210303065523 19 331 0.0 1.0 0.00 0.00 0.00 64 1011.2
20210303065035 19 331 0.0 1.0 0.00 0.00 0.00 64 1011.2
20210303064522 19 330 0.0 1.0 0.00 0.00 0.00 63 1011.5
20210303064022 19 330 0.0 2.0 0.00 0.00 0.00 62 1011.5
20210303063527 19 334 1.0 4.0 0.00 0.00 0.00 60 1011.7
20210303062706 19 342 1.0 4.0 0.00 0.00 0.00 58 1011.7
20210303062024 19 334 1.0 4.0 0.00 0.00 0.00 58 1011.7
20210303061534 19 312 1.0 2.0 0.00 0.00 0.00 58 1012.1
20210303061025 19 303 1.0 2.0 0.00 0.00 0.00 60 1012.1
20210303060522 19 301 0.0 2.0 0.00 0.00 0.00 60 1012.1
20210303060028 19 301 1.0 2.0 0.00 0.00 0.00 60 1012.2
20210303055512 19 301 1.0 2.0 0.00 0.00 0.00 59 1012.2
20210303055026 19 301 1.0 2.0 0.00 0.00 0.00 58 1012.2
20210303054523 19 301 0.0 2.0 0.00 0.00 0.00 58 1012.2
20210303054018 19 300 0.0 2.0 0.00 0.00 0.00 57 1012.2
20210303053522 19 299 0.0 2.0 0.00 0.00 0.00 55 1012.2
20210303053255 20 294 0.0 1.0 0.00 0.00 0.00 54 1012.1
20210303052615 20 294 0.0 1.0 0.00 0.00 0.00 53 1012.1
20210303052024 20 294 0.0 2.0 0.00 0.00 0.00 52 1012.1
20210303051519 20 292 0.0 4.0 0.00 0.00 0.00 52 1012.3
20210303051020 20 282 0.0 4.0 0.00 0.00 0.00 52 1012.3
20210303050513 20 276 0.0 2.0 0.00 0.00 0.00 51 1012.3
20210303050023 20 314 1.0 4.0 0.00 0.00 0.00 51 1012.3
20210303045524 20 346 0.0 4.0 0.00 0.00 0.00 51 1012.3
20210303045017 20 25 0.0 2.0 0.00 0.00 0.00 54 1012.3
20210303044525 20 26 0.0 2.0 0.00 0.00 0.00 53 1012.2
20210303044024 20 26 0.0 2.0 0.00 0.00 0.00 52 1012.2
20210303043527 20 27 0.0 2.0 0.00 0.00 0.00 51 1012.2
20210303043207 20 35 0.0 2.0 0.00 0.00 0.00 48 1012.4
20210303042606 20 64 1.0 2.0 0.00 0.00 0.00 47 1012.3
20210303042021 20 16 1.0 4.0 0.00 0.00 0.00 51 1012.4
20210303041515 20 331 2.0 7.0 0.00 0.00 0.00 49 1012.5
20210303041026 20 322 2.0 7.0 0.00 0.00 0.00 48 1012.5
20210303040514 20 322 2.0 7.0 0.00 0.00 0.00 51 1012.5
20210303040022 20 319 2.0 7.0 0.00 0.00 0.00 49 1012.5
20210303035521 20 322 1.0 6.0 0.00 0.00 0.00 52 1012.5
20210303035026 20 324 1.0 7.0 0.00 0.00 0.00 49 1012.5
20210303034512 20 321 2.0 7.0 0.00 0.00 0.00 48 1012.7
20210303034021 20 330 2.0 7.0 0.00 0.00 0.00 49 1012.7
20210303033523 21 330 2.0 7.0 0.00 0.00 0.00 50 1012.7
20210303033048 20 329 3.0 7.0 0.00 0.00 0.00 49 1012.6
20210303032539 20 325 2.0 6.0 0.00 0.00 0.00 49 1012.6
20210303032022 21 314 2.0 6.0 0.00 0.00 0.00 49 1012.6
20210303031522 21 314 2.0 7.0 0.00 0.00 0.00 48 1012.5
20210303031018 21 317 4.0 9.0 0.00 0.00 0.00 47 1012.5
20210303030519 21 325 4.0 9.0 0.00 0.00 0.00 47 1012.5
20210303030023 20 329 4.0 10.0 0.00 0.00 0.00 46 1012.8
20210303025521 20 332 3.0 10.0 0.00 0.00 0.00 49 1012.8
20210303025023 20 324 2.0 7.0 0.00 0.00 0.00 49 1012.8
20210303024521 20 303 3.0 9.0 0.00 0.00 0.00 47 1012.8
20210303024020 20 300 3.0 9.0 0.00 0.00 0.00 43 1012.8
20210303023511 20 313 3.0 8.0 0.00 0.00 0.00 49 1012.8
20210303023257 20 320 3.0 8.0 0.00 0.00 0.00 43 1012.9
20210303022619 20 325 2.0 7.0 0.00 0.00 0.00 48 1012.9
20210303022021 20 327 2.0 6.0 0.00 0.00 0.00 48 1012.9
20210303021523 20 313 1.0 6.0 0.00 0.00 0.00 46 1012.9
20210303021022 20 320 2.0 4.0 0.00 0.00 0.00 47 1012.9
20210303020521 20 320 2.0 7.0 0.00 0.00 0.00 47 1012.9
20210303020020 20 308 2.0 7.0 0.00 0.00 0.00 48 1013.0
20210303015525 20 283 2.0 7.0 0.00 0.00 0.00 44 1013.0
20210303015021 20 272 1.0 6.0 0.00 0.00 0.00 45 1013.0
20210303014523 20 292 1.0 6.0 0.00 0.00 0.00 45 1013.1
20210303014021 20 293 1.0 6.0 0.00 0.00 0.00 47 1013.1
20210303013521 20 298 1.0 6.0 0.00 0.00 0.00 47 1013.1
20210303013315 20 310 1.0 10.0 0.00 0.00 0.00 46 1013.1
20210303012614 20 307 2.0 10.0 0.00 0.00 0.00 43 1013.1
20210303012022 20 298 1.0 6.0 0.00 0.00 0.00 47 1013.1
20210303011528 20 288 1.0 4.0 0.00 0.00 0.00 48 1012.9
20210303011023 20 281 1.0 4.0 0.00 0.00 0.00 49 1012.9
20210303010520 20 270 1.0 4.0 0.00 0.00 0.00 47 1012.9
20210303010022 20 265 1.0 7.0 0.00 0.00 0.00 47 1013.1
20210303005022 20 289 2.0 9.0 0.00 0.00 0.00 48 1013.1
20210303004529 20 303 2.0 9.0 0.00 0.00 0.00 46 1013.1
20210303003510 20 319 1.0 6.0 0.00 0.00 0.00 49 1012.9
20210303002038 20 303 2.0 8.0 0.00 0.00 0.00 48 1012.8
20210303001543 21 306 3.0 8.0 0.00 0.00 0.00 46 1012.8
20210303001021 21 295 2.0 8.0 0.00 0.00 0.00 48 1012.6
20210303000545 21 279 1.0 7.0 0.00 0.00 0.00 47 1012.6
20210303000034 21 312 1.0 7.0 0.00 0.00 0.00 48 1012.6
20210302235534 21 325 1.0 4.0 0.00 0.00 0.00 46 1012.3
20210302235032 21 311 2.0 10.0 0.00 0.00 0.00 47 1012.3
20210302234522 21 317 2.0 10.0 0.00 0.00 0.00 46 1012.2
20210302234021 21 298 2.0 8.0 0.00 0.00 0.00 49 1012.2
20210302233522 21 310 3.0 10.0 0.00 0.00 0.00 48 1012.2
20210302233216 21 323 5.0 10.0 0.00 0.00 0.00 46 1012.2
20210302232648 21 322 4.0 9.0 0.00 0.00 0.00 45 1012.2
20210302232019 21 315 4.0 9.0 0.00 0.00 0.00 49 1012.2
20210302231520 21 319 4.0 9.0 0.00 0.00 0.00 45 1012.2
20210302231024 21 329 5.0 10.0 0.00 0.00 0.00 49 1012.2
20210302230519 21 324 6.0 13.0 0.00 0.00 0.00 46 1012.2
20210302230029 21 327 6.0 13.0 0.00 0.00 0.00 47 1012.1
20210302225528 22 334 6.0 11.0 0.00 0.00 0.00 45 1012.1
20210302225019 22 333 5.0 16.0 0.00 0.00 0.00 47 1012.1
20210302224525 22 325 6.0 16.0 0.00 0.00 0.00 47 1012.1
20210302224020 22 323 6.0 10.0 0.00 0.00 0.00 44 1012.1
20210302223523 22 326 7.0 11.0 0.00 0.00 0.00 45 1012.1
20210302223054 22 329 7.0 11.0 0.00 0.00 0.00 45 1012.1
20210302222632 22 329 6.0 13.0 0.00 0.00 0.00 46 1011.8
20210302222021 22 331 7.0 14.0 0.00 0.00 0.00 44 1011.8
20210302221552 22 330 6.0 14.0 0.00 0.00 0.00 46 1011.8
20210302221027 22 324 7.0 10.0 0.00 0.00 0.00 45 1011.8
20210302220517 22 328 6.0 14.0 0.00 0.00 0.00 43 1011.8
20210302220027 22 337 6.0 14.0 0.00 0.00 0.00 45 1011.7
20210302215519 22 337 5.0 9.0 0.00 0.00 0.00 47 1011.7
20210302214526 22 336 4.0 9.0 0.00 0.00 0.00 48 1011.7
20210302214025 22 336 4.0 9.0 0.00 0.00 0.00 45 1011.7
20210302213529 22 334 4.0 8.0 0.00 0.00 0.00 47 1011.7
20210302213046 22 337 4.0 9.0 0.00 0.00 0.00 44 1011.7
20210302212607 22 338 4.0 9.0 0.00 0.00 0.00 45 1011.7
20210302211531 22 349 3.0 7.0 0.00 0.00 0.00 45 1011.8
20210302204021 22 352 6.0 14.0 0.00 0.00 0.00 43 1012.0
20210302203526 22 353 7.0 15.0 0.00 0.00 0.00 41 1012.0
20210302203024 22 349 6.0 15.0 0.00 0.00 0.00 43 1011.7
20210302202530 22 345 5.0 10.0 0.00 0.00 0.00 48 1011.7
20210302202024 22 353 5.0 10.0 0.00 0.00 0.00 46 1011.7
20210302201526 22 358 6.0 11.0 0.00 0.00 0.00 39 1011.8
20210302201022 21 351 6.0 11.0 0.00 0.00 0.00 41 1011.8
20210302200510 21 344 6.0 13.0 0.00 0.00 0.00 43 1011.8
20210302200027 21 351 7.0 13.0 0.00 0.00 0.00 42 1011.7
20210302195539 21 2 7.0 13.0 0.00 0.00 0.00 44 1011.7
20210302195222 21 359 7.0 14.0 0.00 0.00 0.00 41 1011.7
20210302194519 21 351 8.0 15.0 0.00 0.00 0.00 40 1011.6
20210302194034 21 348 7.0 15.0 0.00 0.00 0.00 40 1011.6
20210302193509 21 348 5.0 9.0 0.00 0.00 0.00 44 1011.6
20210302193021 21 344 5.0 10.0 0.00 0.00 0.00 46 1011.5
20210302192532 21 343 6.0 10.0 0.00 0.00 0.00 42 1011.5
20210302192019 21 341 6.0 10.0 0.00 0.00 0.00 43 1011.5
20210302191529 21 325 5.0 9.0 0.00 0.00 0.00 45 1011.5
20210302191019 21 328 6.0 10.0 0.00 0.00 0.00 45 1011.6
20210302190048 21 336 6.0 11.0 0.00 0.00 0.00 45 1011.6
20210302185639 21 341 6.0 11.0 0.00 0.00 0.00 48 1011.6
20210302184522 21 328 7.0 13.0 0.00 0.00 0.00 45 1011.5
20210302184023 21 331 6.0 10.0 0.00 0.00 0.00 47 1011.5
20210302183520 21 338 6.0 9.0 0.00 0.00 0.00 48 1011.5
20210302183127 20 353 6.0 10.0 0.00 0.00 0.00 46 1011.7
20210302182549 20 354 8.0 14.0 0.00 0.00 0.00 44 1011.7
20210302182021 20 341 8.0 14.0 0.00 0.00 0.00 45 1011.7
20210302181525 20 341 6.0 11.0 0.00 0.00 0.00 47 1011.1
20210302181027 20 350 7.0 14.0 0.00 0.00 0.00 49 1011.1
20210302180519 20 350 8.0 15.0 0.00 0.00 0.00 44 1011.1
20210302180027 20 344 8.0 15.0 0.00 0.00 0.00 43 1011.5
20210302175518 19 343 8.0 14.0 0.00 0.00 0.00 47 1011.5
20210302175035 19 345 8.0 15.0 0.00 0.00 0.00 47 1011.5
20210302174521 19 342 9.0 15.0 0.00 0.00 0.00 45 1011.6
20210302174020 19 341 9.0 17.0 0.00 0.00 0.00 45 1011.6
20210302173617 19 346 7.0 17.0 0.00 0.00 0.00 46 1011.6
20210302173300 18 353 7.0 14.0 0.00 0.00 0.00 47 1011.6
20210302172632 18 355 6.0 17.0 0.00 0.00 0.00 44 1011.6
20210302172023 18 354 6.0 17.0 0.00 0.00 0.00 46 1011.6
20210302171533 18 349 8.0 17.0 0.00 0.00 0.00 44 1011.9
20210302171022 18 347 8.0 17.0 0.00 0.00 0.00 42 1011.9
20210302170524 17 351 8.0 15.0 0.00 0.00 0.00 46 1011.8
20210302170059 17 351 7.0 18.0 0.00 0.00 0.00 44 1012.2
20210302165521 17 348 8.0 18.0 0.00 0.00 0.00 43 1012.2
20210302165023 17 350 8.0 15.0 0.00 0.00 0.00 44 1012.2
20210302164624 17 348 9.0 17.0 0.00 0.00 0.00 44 1011.9
20210302164202 16 347 8.0 17.0 0.00 0.00 0.00 42 1011.9
20210302163848 16 344 7.0 14.0 0.00 0.00 0.00 46 1011.9
20210302163421 16 335 8.0 16.0 0.00 0.00 0.00 47 1012.5
20210302162737 16 334 9.0 18.0 0.00 0.01 0.00 47 1012.5
20210302162025 15 336 9.0 18.0 0.00 0.01 0.00 48 1012.5
20210302161547 15 336 9.0 17.0 0.00 0.01 0.00 48 1012.2
20210302161026 15 337 8.0 17.0 0.00 0.01 0.00 48 1012.2
20210302160516 15 337 8.0 17.0 0.00 0.01 0.00 52 1012.2
20210302160022 14 340 8.0 15.0 0.00 0.01 0.00 51 1012.5
20210302155523 14 345 8.0 15.0 0.00 0.02 0.00 50 1012.5
20210302154520 14 354 7.0 20.0 0.00 0.02 0.00 50 1012.8
20210302154052 14 347 7.0 20.0 0.00 0.02 0.00 54 1012.8
20210302153843 13 343 7.0 15.0 0.00 0.02 0.00 51 1012.8
20210302153155 13 328 6.0 10.0 0.00 0.02 0.00 54 1012.8
20210302152532 13 334 6.0 10.0 0.00 0.02 0.00 52 1012.8
20210302152035 13 345 6.0 15.0 0.00 0.02 0.00 52 1012.8
20210302151515 12 342 6.0 15.0 0.00 0.02 0.00 51 1013.0
20210302151019 12 344 5.0 16.0 0.00 0.02 0.00 51 1013.0
20210302150521 12 337 5.0 16.0 0.00 0.02 0.00 51 1013.0
20210302150146 12 331 6.0 15.0 0.00 0.02 0.00 51 1012.9
20210302145648 11 336 6.0 15.0 0.00 0.03 0.00 52 1012.9
20210302145048 11 341 5.0 15.0 0.00 0.03 0.00 51 1012.9
20210302144032 10 345 7.0 23.0 0.00 0.03 0.00 48 1013.3
20210302143523 10 345 6.0 13.0 0.00 0.03 0.00 47 1013.3
20210302143030 10 338 5.0 10.0 0.00 0.03 0.00 53 1012.9
20210302142550 10 343 5.0 14.0 0.00 0.03 0.00 53 1012.9
20210302142024 10 337 7.0 14.0 0.00 0.03 0.00 51 1012.9
20210302141524 9 327 6.0 11.0 0.00 0.03 0.00 51 1012.5
20210302141013 9 332 7.0 14.0 0.00 0.03 0.00 53 1012.5
20210302140521 9 331 7.0 15.0 0.00 0.03 0.00 49 1012.5
20210302140021 8 329 7.0 15.0 0.00 0.03 0.00 54 1012.7
20210302135524 8 334 7.0 14.0 0.00 0.03 0.00 54 1012.7
20210302135041 8 330 9.0 17.0 0.00 0.03 0.00 52 1012.7
20210302134518 8 329 9.0 21.0 0.00 0.03 0.00 51 1013.1
20210302134022 8 331 8.0 21.0 0.00 0.03 0.00 53 1013.1
20210302133557 8 335 7.0 13.0 0.00 0.03 0.00 53 1013.1
20210302133143 7 331 7.0 13.0 0.00 0.03 0.00 53 1013.0
20210302132639 7 328 6.0 13.0 0.00 0.03 0.00 54 1013.0
20210302132021 7 331 5.0 11.0 0.00 0.03 0.00 54 1013.0
20210302131521 7 332 6.0 17.0 0.00 0.03 0.00 55 1012.7
20210302131021 7 343 6.0 17.0 0.00 0.03 0.00 54 1012.7
20210302130510 7 336 5.0 10.0 0.00 0.03 0.00 52 1012.7
20210302130029 7 309 5.0 10.0 0.00 0.03 0.00 55 1012.7
20210302125529 7 320 5.0 14.0 0.00 0.03 0.00 54 1012.7
20210302125222 7 343 4.0 14.0 0.00 0.03 0.00 53 1012.7
20210302124524 6 340 4.0 9.0 0.00 0.03 0.00 54 1012.6
20210302124020 6 327 4.0 8.0 0.00 0.03 0.00 54 1012.6